Weather History for Martha's Vineyard, MA

Change the Weather History Date:

Friday, October 25, 2013

  Actual Average Record
Temperature  
Mean Temperature 46 °F -  
Max Temperature 54 °F 60 °F 71 °F (1951)
Min Temperature 39 °F 43 °F 21 °F (2003)
Degree Days  
Heating Degree Days 18    
Moisture  
Dew Point 29 °F    
Average Humidity 51    
Maximum Humidity 68    
Minimum Humidity 38    
Precipitation  
Precipitation 0.00 in - - ()
Sea Level Pressure  
Sea Level Pressure 30.04 in    
Wind  
Wind Speed 9 mph (NW)    
Max Wind Speed 15 mph    
Max Gust Speed 24 mph    
Visibility 10 miles    
Events      
Averages and records for this station are not official NWS values.
T = Trace of Precipitation, MM = Missing Value Source: NWS Daily Summary

Daily Weather History Graph

Daily Weather History Graph

Search for Another Location

Airport:

Trip Planner

Search our weather history database for the weather conditions in past years. The results will help you decide how hot, cold, wet, or windy it might be!

Date:

Astronomy

Oct. 25, 2013 Rise Set
Actual Time 7:05 AM EDT 5:46 PM EDT
Civil Twilight 6:37 AM EDT 6:14 PM EDT
Nautical Twilight 6:05 AM EDT 6:47 PM EDT
Astronomical Twilight 5:33 AM EDT 7:19 PM EDT
Moon 11:02 PM EDT (10/25) 12:45 PM EDT (10/25)
Length of Visible Light 11h 37m
Length of Day
10h 40m
Waning Gibbous, 62% of the Moon is Illuminated
Oct 25
Waning Gibbous
Oct 26
Last Quarter
Nov 3
New
Nov 10
First Quarter
Nov 17
Full

Hourly Weather History & Observations

Time (EDT) Temp. Windchill Dew Point Humidity Pressure Visibility Wind Dir Wind Speed Gust Speed Precip Events Conditions
12:53 AM 46.9 °F - 30.0 °F 52% 29.93 in 10.0 mi WNW 9.2 mph - N/A   Clear
1:53 AM 46.0 °F 42.5 °F 30.0 °F 54% 29.94 in 10.0 mi WNW 6.9 mph - N/A   Clear
2:53 AM 45.0 °F 41.8 °F 30.0 °F 56% 29.94 in 10.0 mi WNW 5.8 mph - N/A   Clear
3:53 AM 45.0 °F 41.2 °F 30.0 °F 56% 29.94 in 10.0 mi WNW 6.9 mph - N/A   Clear
4:53 AM 43.0 °F 39.5 °F 30.0 °F 60% 29.97 in 10.0 mi WNW 5.8 mph - N/A   Clear
5:53 AM 39.9 °F 36.7 °F 30.0 °F 68% 29.99 in 10.0 mi NW 4.6 mph - N/A   Clear
6:53 AM 41.0 °F 38.0 °F 30.9 °F 67% 30.00 in 10.0 mi NW 4.6 mph - N/A   Clear
7:53 AM 44.1 °F 40.1 °F 33.1 °F 65% 30.02 in 10.0 mi NW 6.9 mph - N/A   Clear
8:53 AM 48.0 °F - 34.0 °F 58% 30.04 in 10.0 mi NW 13.8 mph - N/A   Clear
9:53 AM 48.9 °F - 34.0 °F 56% 30.04 in 10.0 mi WNW 12.7 mph - N/A   Clear
10:53 AM 50.0 °F - 30.9 °F 48% 30.04 in 10.0 mi WNW 11.5 mph - N/A   Clear
11:53 AM 52.0 °F - 27.0 °F 38% 30.02 in 10.0 mi NW 12.7 mph - N/A   Clear
12:53 PM 52.0 °F - 30.0 °F 43% 30.01 in 10.0 mi NW 12.7 mph - N/A   Partly Cloudy
1:53 PM 54.0 °F - 28.9 °F 38% 30.00 in 10.0 mi WNW 15.0 mph 20.7 mph N/A   Scattered Clouds
2:53 PM 52.0 °F - 28.0 °F 40% 30.01 in 10.0 mi NW 12.7 mph 19.6 mph N/A   Mostly Cloudy
3:53 PM 50.0 °F - 26.1 °F 39% 30.03 in 10.0 mi WNW 11.5 mph 24.2 mph N/A   Scattered Clouds
4:53 PM 48.9 °F - 26.1 °F 41% 30.04 in 10.0 mi NW 11.5 mph 18.4 mph N/A   Clear
5:53 PM 45.0 °F 42.6 °F 27.0 °F 49% 30.06 in 10.0 mi NNW 4.6 mph - N/A   Partly Cloudy
6:53 PM 43.0 °F 38.8 °F 26.1 °F 51% 30.09 in 10.0 mi NW 6.9 mph - N/A   Clear
7:53 PM 46.9 °F - 27.0 °F 46% 30.11 in 10.0 mi WNW 10.4 mph - N/A   Clear
8:53 PM 46.9 °F - 27.0 °F 46% 30.13 in 10.0 mi NW 11.5 mph - N/A   Clear
9:53 PM 46.0 °F 40.6 °F 28.0 °F 50% 30.15 in 10.0 mi NNW 11.5 mph - N/A   Clear
10:53 PM 44.1 °F 38.6 °F 28.0 °F 53% 30.17 in 10.0 mi NW 10.4 mph - N/A   Clear
11:53 PM 42.1 °F 39.2 °F 27.0 °F 55% 30.18 in 10.0 mi WNW 4.6 mph - N/A   Clear